Temperature
16 15 15 14 14 13 13 13 12 12 11 11 10 10 10 9 9 9 8 8 7 7 7 6 6 6 5 5 4 4 3 2 2 2 1 1 1 1 1 0 0 -0 -0
16 15 15 14 14 13 13 12 12 12 11 11 10 10 9 9 9 8 8 8 7 7 6 6 6 5 5 4 4 3 3 2 2 1 1 0 0 -0 -0 -1 -1 -1 -1
16 15 14 14 14 13 13 12 12 11 11 10 10 9 9 9 8 8 8 7 7 7 6 6 5 5 4 4 3 3 2 2 1 0 0 -0 -1 -1 -1 -2 -2 -2 -2
15 15 14 14 13 13 12 12 11 11 10 10 10 9 9 8 8 8 7 7 7 6 6 5 5 4 4 3 2 2 1 1 0 -0 -1 -1 -1 -2 -2 -2 -3 -3 -3
15 15 14 14 13 12 12 11 11 10 10 10 9 9 8 8 8 7 7 6 6 6 5 4 4 3 3 2 2 1 1 0 -0 -1 -1 -2 -2 -2 -3 -3 -3 -4 -4
15 14 14 13 12 12 11 11 10 10 9 9 9 8 8 7 7 7 6 6 5 5 4 4 3 3 2 2 1 1 0 -1 -1 -2 -2 -3 -3 -3 -3 -4 -4 -4 -5
14 14 13 13 12 11 11 10 10 9 9 8 8 7 7 7 7 6 6 5 5 4 3 3 2 2 1 1 0 -0 -1 -1 -2 -2 -3 -3 -3 -4 -4 -4 -5 -5 -5
14 13 13 12 11 11 10 10 9 9 8 8 7 7 7 7 6 6 5 4 4 3 3 2 2 1 1 0 -0 -1 -1 -2 -2 -3 -3 -3 -4 -4 -5 -5 -5 -6 -6
13 13 12 11 11 10 9 9 8 8 8 7 7 7 6 6 5 5 4 3 3 2 2 1 1 0 -0 -1 -1 -2 -2 -3 -3 -3 -4 -4 -5 -5 -5 -6 -6 -6 -7
13 12 12 11 10 9 9 8 8 7 7 6 6 6 5 5 5 4 3 2 2 1 1 1 0 -0 -1 -2 -2 -3 -3 -3 -4 -4 -5 -5 -5 -5 -6 -6 -7 -7 -7
12 12 11 10 9 9 8 8 7 7 6 6 5 5 4 4 3 3 2 2 1 0 -0 -0 -1 -1 -2 -2 -3 -3 -4 -4 -5 -5 -5 -6 -6 -6 -6 -7 -7 -8 -8
12 11 10 9 9 8 7 7 6 6 5 5 4 4 3 3 2 2 1 1 0 -0 -1 -1 -2 -2 -2 -3 -3 -4 -5 -5 -5 -6 -6 -6 -7 -7 -7 -7 -8 -8 -8
11 10 9 9 8 7 7 6 6 5 4 4 3 3 2 2 2 1 1 0 -0 -1 -2 -2 -2 -3 -3 -4 -4 -5 -5 -6 -6 -7 -7 -7 -7 -8 -8 -8 -8 -9 -9
10 9 8 8 7 6 6 5 5 4 4 3 2 2 1 1 0 0 -0 -1 -1 -2 -2 -3 -3 -4 -4 -5 -5 -6 -6 -6 -7 -7 -8 -8 -8 -8 -9 -9 -9 -9 -10
9 8 7 7 6 6 5 4 4 3 3 2 2 1 0 0 -0 -1 -1 -2 -2 -3 -3 -4 -4 -5 -5 -6 -6 -6 -7 -7 -8 -8 -8 -8 -9 -9 -9 -10 -10 -10 -10
8 7 7 6 5 5 4 3 3 2 2 1 1 0 -0 -1 -1 -2 -2 -3 -3 -4 -4 -5 -5 -6 -6 -6 -7 -7 -8 -8 -8 -8 -9 -9 -9 -10 -10 -10 -10 -10 -11
7 6 6 5 4 4 3 3 2 1 1 1 0 -0 -1 -1 -2 -2 -3 -3 -4 -4 -5 -6 -6 -6 -7 -7 -7 -8 -8 -8 -9 -9 -9 -10 -10 -10 -11 -11 -11 -11 -11
6 5 5 4 4 3 2 2 1 1 0 -0 -1 -1 -2 -2 -2 -3 -4 -4 -5 -5 -6 -6 -7 -7 -7 -8 -8 -8 -9 -9 -9 -10 -10 -10 -10 -11 -11 -11 -11 -11 -11
5 4 4 3 3 2 1 1 0 -0 -1 -1 -2 -2 -2 -3 -3 -4 -4 -5 -5 -6 -6 -7 -7 -8 -8 -8 -8 -9 -9 -9 -10 -10 -10 -11 -11 -11 -11 -11 -11 -11 -11
4 3 3 2 1 1 0 -0 -1 -1 -2 -2 -3 -3 -3 -4 -4 -4 -5 -5 -6 -6 -7 -7 -8 -8 -8 -9 -9 -9 -10 -10 -10 -10 -11 -11 -11 -11 -11 -12 -12 -12 -12
3 2 2 1 1 0 -0 -1 -2 -2 -3 -3 -3 -4 -4 -5 -5 -5 -6 -6 -7 -7 -7 -8 -8 -8 -9 -9 -9 -10 -10 -10 -10 -11 -11 -11 -11 -11 -12 -12 -12 -12 -12
2 1 1 0 -0 -1 -2 -2 -3 -3 -3 -4 -4 -4 -5 -5 -6 -6 -6 -7 -7 -7 -8 -8 -8 -9 -9 -9 -10 -10 -10 -11 -11 -11 -11 -12 -12 -12 -12 -12 -12 -12 -12
1 0 -0 -1 -1 -2 -3 -3 -3 -4 -4 -5 -5 -5 -5 -6 -6 -6 -7 -7 -7 -8 -8 -8 -9 -9 -9 -9 -10 -10 -10 -11 -11 -11 -12 -12 -12 -12 -12 -12 -12 -12 -12
-0 -1 -1 -2 -2 -3 -3 -4 -4 -4 -5 -5 -5 -6 -6 -6 -7 -7 -7 -7 -8 -8 -8 -9 -9 -9 -9 -10 -10 -10 -10 -11 -11 -11 -12 -12 -12 -12 -12 -12 -12 -12 -12
-1 -2 -2 -3 -3 -3 -4 -4 -5 -5 -5 -6 -6 -6 -7 -7 -7 -7 -8 -8 -8 -8 -9 -9 -9 -9 -9 -10 -10 -10 -10 -11 -11 -11 -12 -12 -12 -12 -12 -12 -12 -12 -12
-2 -3 -3 -3 -4 -4 -5 -5 -5 -5 -6 -6 -6 -7 -7 -7 -8 -8 -8 -8 -8 -9 -9 -9 -9 -9 -10 -10 -10 -10 -10 -11 -11 -11 -11 -12 -12 -12 -12 -12 -12 -12 -12
Wind_Speed
12 12 12 12 12 11 11 11 11 10 10 11 11 11 11 11 11 11 11 11 11 11 10 10 11 10 8 8 8 8 9 9 13 12 9 9 10 11 11 13 14 15 15
10 11 11 11 11 11 11 11 10 10 9 9 9 10 10 10 10 11 11 11 11 11 11 11 11 8 10 9 8 9 9 10 10 13 11 9 11 11 12 12 12 13 15
10 10 10 11 11 11 10 10 9 9 9 9 9 9 9 9 9 10 10 10 11 11 11 11 10 10 11 9 9 9 8 8 9 10 11 9 9 9 11 11 12 12 14
10 10 10 11 10 10 9 9 9 9 8 8 8 8 8 8 8 9 9 9 10 10 10 10 10 10 11 10 9 10 9 9 9 9 10 10 10 10 9 10 11 11 11
10 10 10 9 9 9 9 8 8 8 8 7 7 7 7 7 7 8 8 9 9 9 9 10 9 10 10 10 8 8 8 8 8 9 10 10 10 8 9 9 11 11 12
10 10 9 8 9 9 8 8 8 7 7 7 7 7 7 6 6 8 8 8 8 9 9 8 8 9 10 13 14 13 12 10 10 10 10 11 12 11 9 9 10 11 11
10 9 9 9 9 9 8 8 8 7 7 7 7 7 7 6 7 8 9 7 8 8 8 7 6 6 8 8 11 13 13 15 15 13 12 12 12 10 10 11 11 12 13
9 9 9 9 9 8 8 8 7 6 6 6 6 6 6 5 6 7 7 8 7 7 7 7 7 7 7 8 8 9 10 11 12 11 11 12 11 11 11 12 13 13 13
10 10 9 9 9 9 8 8 6 6 6 5 5 6 6 5 6 6 6 5 5 6 6 6 7 7 8 9 9 9 10 9 9 11 13 14 15 16 13 9 9 9 11
10 9 9 9 9 9 8 7 5 5 5 4 4 5 5 5 4 5 6 4 5 5 5 5 7 9 9 10 9 8 9 9 8 8 10 11 12 12 13 10 9 9 10
8 8 8 8 8 8 7 6 5 5 4 4 4 4 4 4 4 6 6 4 5 5 5 5 5 8 10 10 9 8 9 9 8 8 8 8 8 7 8 7 7 8 9
8 8 8 8 7 6 6 6 5 5 5 4 4 3 3 3 4 5 6 6 6 5 5 5 5 8 9 9 8 9 10 9 6 7 7 7 7 7 7 7 8 9 10
9 9 8 7 6 6 7 6 5 5 4 4 3 3 3 2 3 5 5 6 6 5 5 6 7 8 8 7 8 9 9 6 6 7 8 8 7 7 7 7 7 8 10
9 8 8 7 6 6 5 5 5 5 4 4 4 3 3 3 3 3 3 3 4 4 4 5 6 6 6 6 7 6 5 6 6 7 7 7 6 6 6 7 7 7 8
9 8 7 6 6 5 4 3 4 4 4 4 4 4 4 4 4 5 4 4 4 4 4 4 4 4 4 4 4 5 5 5 6 6 6 6 6 6 7 6 6 7 7
9 8 6 6 5 5 4 2 1 2 2 3 4 4 4 5 5 6 6 6 6 5 5 4 5 5 5 5 5 5 5 6 6 6 6 6 6 6 7 6 6 7 8
9 8 6 6 5 5 4 4 2 1 2 3 3 4 4 5 5 5 5 5 5 4 4 4 5 5 5 5 5 6 6 6 5 6 6 6 6 7 7 7 7 7 7
8 7 6 6 5 5 5 4 3 3 2 1 2 3 3 4 4 4 4 4 4 4 4 5 5 5 5 6 6 6 6 6 6 6 6 6 6 7 7 7 7 7 7
7 6 5 5 4 4 4 3 3 3 3 2 2 2 2 2 3 4 4 4 4 5 5 5 5 5 6 6 6 6 6 6 6 6 6 6 6 6 7 7 7 8 8
6 7 6 5 5 4 4 3 3 3 3 3 3 2 2 2 3 3 3 4 4 5 5 5 5 6 6 6 6 6 6 6 6 6 6 6 6 6 7 7 7 7 7
6 6 7 5 4 4 4 4 3 3 3 3 3 3 4 3 4 4 4 5 5 5 5 5 6 6 6 6 6 7 7 7 6 6 6 6 6 6 6 6 6 7 7
5 5 5 4 4 3 3 3 3 3 3 3 3 3 5 4 4 4 5 5 5 5 5 6 6 6 6 6 6 7 7 7 7 7 6 6 6 6 6 6 6 6 6
5 5 4 4 3 4 3 3 3 3 3 3 3 3 4 4 4 5 5 5 5 5 6 6 6 6 6 6 7 7 8 8 7 7 7 7 7 6 6 6 7 7 7
5 5 4 4 3 3 3 2 2 3 3 3 4 4 4 4 5 5 6 6 6 6 6 6 7 8 10 8 8 8 8 8 8 8 9 9 8 7 7 6 7 7 7
5 4 4 4 3 3 3 3 3 3 3 4 4 4 4 5 5 6 6 6 6 7 7 8 7 8 10 11 10 9 11 13 13 10 9 8 9 8 8 8 7 7 6
4 4 3 3 3 2 3 3 3 3 3 4 4 4 5 5 6 6 6 6 6 6 7 7 8 9 11 10 11 12 14 14 14 14 10 8 8 8 7 7 8 7 7
Wind_Direction
200 201 203 206 207 209 213 215 216 217 215 217 216 216 218 220 220 221 225 226 228 232 230 232 236 236 237 237 236 237 240 245 260 272 270 270 268 268 271 272 277 280 280
196 198 201 202 202 206 211 213 213 215 215 216 217 220 221 222 221 223 227 226 229 232 233 233 238 236 237 238 235 239 243 245 256 269 273 273 271 273 276 278 280 279 280
192 194 196 198 200 204 207 208 209 211 212 213 215 219 221 222 223 226 228 230 232 235 236 236 238 236 239 239 238 243 247 250 252 264 273 276 274 273 279 278 277 278 280
187 191 196 197 198 200 202 203 204 205 208 210 214 218 220 222 225 227 229 233 236 238 238 238 238 236 240 242 243 246 250 252 255 261 269 275 275 276 277 280 282 281 282
186 191 196 194 193 194 196 198 199 202 205 207 211 216 218 221 224 225 228 233 237 240 241 240 240 241 245 246 247 249 249 252 256 261 268 273 273 276 276 279 281 287 286
187 191 188 186 187 190 193 194 196 199 201 203 208 213 217 221 215 219 229 235 239 241 244 246 246 242 243 246 250 252 251 253 258 262 266 268 273 276 279 279 283 287 288
186 186 184 184 185 188 187 190 194 197 199 204 208 212 221 222 209 220 226 238 243 245 247 249 250 249 249 254 256 257 255 255 257 262 266 268 274 278 280 281 281 282 284
184 184 183 183 183 182 185 190 193 195 199 206 211 215 222 222 211 223 228 238 244 245 246 249 253 256 253 259 264 263 262 261 259 260 266 272 276 281 279 278 282 283 283
186 185 183 181 180 181 186 190 190 191 198 205 211 215 222 223 209 218 227 235 240 244 247 247 249 256 257 260 264 264 267 268 264 264 271 276 280 281 282 282 281 281 285
188 183 179 180 180 183 185 184 184 187 192 195 209 217 223 228 210 210 222 231 240 246 250 249 249 258 264 264 265 265 267 273 276 276 277 278 279 280 279 274 277 280 286
176 171 172 176 178 178 175 176 175 176 182 194 205 218 225 227 211 211 224 234 241 250 254 257 258 261 266 268 270 270 274 283 280 278 279 280 280 279 277 273 271 271 278
163 165 168 169 165 167 168 170 174 176 183 194 202 216 227 224 223 222 233 246 255 257 259 263 265 268 269 270 274 277 282 284 278 277 277 278 280 281 280 277 273 270 269
161 164 164 162 164 168 171 172 176 182 190 199 206 217 228 232 226 229 242 255 260 266 267 272 275 275 275 273 277 283 285 280 278 277 278 281 285 288 286 281 279 274 273
163 163 162 164 165 168 171 176 182 190 196 202 212 220 228 237 236 231 244 255 258 264 269 271 272 274 276 278 281 282 280 279 280 280 284 287 290 288 287 289 289 291 288
161 161 163 166 166 168 171 182 195 204 206 206 216 219 225 238 242 250 260 260 260 260 270 268 265 268 272 273 276 278 278 277 278 280 283 285 287 287 287 289 288 287 285
160 162 165 168 167 167 163 151 123 205 207 228 232 235 243 248 251 261 269 272 276 269 274 263 265 267 270 274 277 278 278 279 280 282 282 283 285 287 289 289 286 284 285
165 164 164 168 169 170 172 172 170 144 176 213 220 234 243 246 252 262 266 268 265 265 264 260 263 267 270 273 274 275 276 277 279 278 279 281 283 284 285 285 285 285 286
160 160 164 169 171 174 178 181 182 186 205 228 220 228 237 241 251 258 258 262 253 252 254 258 263 266 269 270 272 273 275 277 274 274 276 277 279 281 282 282 282 285 289
158 160 162 164 167 173 174 177 184 194 204 213 224 225 226 240 251 248 252 251 252 258 260 263 265 267 269 270 271 272 273 273 274 273 273 274 276 278 279 281 282 284 285
157 154 158 162 167 171 174 178 186 194 202 212 221 224 219 237 245 248 252 254 257 261 264 266 268 268 268 268 269 270 270 270 269 267 270 272 273 275 277 278 281 283 283
153 157 158 163 171 175 179 186 192 199 208 220 232 234 241 251 254 256 259 260 260 263 266 268 270 269 267 267 267 267 266 267 268 268 269 270 271 272 274 276 279 279 280
155 160 165 168 169 176 182 188 195 206 215 226 236 238 249 254 253 257 261 265 267 267 268 269 269 268 267 266 266 266 266 266 266 266 267 267 268 270 270 271 274 279 280
154 156 159 163 166 173 181 188 196 208 221 231 239 246 250 253 256 260 265 269 271 270 270 268 268 269 269 266 263 262 263 263 264 265 265 266 266 267 268 267 268 274 278
155 158 160 164 168 178 185 196 208 218 228 239 246 252 255 259 262 266 269 272 272 272 272 270 269 269 270 271 268 263 261 262 264 259 257 259 262 265 265 264 266 270 271
155 160 166 171 177 184 193 206 218 228 237 245 251 256 259 262 265 268 270 271 274 274 275 274 270 269 269 269 269 268 268 268 267 263 254 250 253 254 256 259 262 266 265
154 158 165 172 181 192 203 216 228 236 246 252 256 259 262 265 267 270 272 272 274 276 277 275 271 272 274 273 270 269 271 271 270 269 260 250 248 249 250 252 256 256 259
Height
1459 1460 1462 1464 1465 1467 1468 1470 1471 1472 1473 1474 1475 1476 1476 1477 1478 1478 1478 1478 1477 1477 1476 1475 1474 1474 1472 1471 1470 1468 1467 1465 1461 1459 1459 1456 1454 1452 1449 1447 1444 1441 1438
1454 1455 1457 1458 1460 1461 1463 1464 1465 1466 1467 1468 1469 1470 1470 1471 1471 1471 1471 1471 1470 1470 1469 1468 1467 1466 1465 1464 1463 1461 1460 1458 1456 1452 1451 1449 1447 1445 1442 1440 1437 1433 1430
1449 1450 1452 1453 1454 1456 1457 1459 1460 1461 1461 1462 1463 1464 1464 1465 1465 1465 1465 1465 1464 1463 1462 1461 1460 1460 1458 1457 1456 1454 1453 1451 1449 1446 1443 1442 1439 1438 1435 1432 1429 1426 1423
1443 1445 1447 1448 1449 1451 1452 1453 1454 1455 1456 1457 1457 1458 1458 1458 1459 1459 1458 1458 1457 1456 1455 1454 1454 1453 1452 1450 1449 1447 1446 1444 1442 1439 1436 1434 1433 1430 1428 1425 1422 1419 1416
1438 1440 1441 1443 1444 1446 1447 1448 1449 1450 1450 1451 1452 1452 1452 1452 1452 1452 1452 1451 1450 1449 1448 1448 1447 1446 1444 1443 1442 1441 1439 1437 1435 1432 1430 1428 1426 1424 1422 1419 1415 1412 1409
1433 1435 1436 1438 1439 1440 1442 1443 1444 1445 1445 1446 1446 1446 1446 1446 1446 1446 1446 1445 1444 1443 1442 1441 1440 1439 1438 1436 1435 1434 1432 1431 1428 1426 1424 1422 1419 1418 1415 1413 1410 1406 1402
1427 1429 1431 1432 1433 1435 1436 1437 1438 1439 1440 1440 1440 1441 1441 1441 1441 1440 1440 1439 1437 1436 1435 1434 1433 1432 1431 1429 1428 1426 1425 1423 1422 1421 1418 1415 1414 1412 1409 1406 1403 1400 1396
1422 1424 1425 1427 1428 1429 1431 1432 1433 1433 1434 1435 1435 1435 1435 1434 1434 1434 1433 1432 1431 1430 1429 1428 1427 1425 1424 1423 1421 1419 1418 1417 1415 1413 1411 1409 1407 1405 1403 1400 1397 1393 1389
1416 1418 1419 1421 1423 1424 1425 1426 1427 1428 1429 1429 1429 1429 1429 1428 1428 1428 1427 1425 1424 1424 1423 1422 1421 1419 1418 1417 1415 1413 1411 1410 1408 1406 1404 1402 1400 1398 1396 1393 1390 1387 1383
1411 1413 1414 1416 1417 1419 1420 1421 1422 1423 1423 1423 1423 1423 1423 1422 1422 1422 1421 1420 1419 1418 1417 1416 1415 1413 1412 1411 1409 1407 1405 1403 1402 1399 1397 1395 1393 1391 1389 1387 1384 1382 1378
1406 1408 1409 1411 1413 1414 1415 1416 1417 1417 1418 1418 1418 1418 1417 1417 1416 1416 1415 1414 1413 1412 1411 1410 1409 1407 1406 1405 1403 1401 1399 1398 1395 1393 1391 1389 1387 1384 1382 1380 1378 1376 1373
1401 1403 1404 1406 1407 1409 1410 1411 1411 1412 1412 1412 1412 1412 1412 1411 1411 1410 1410 1409 1408 1407 1405 1404 1403 1401 1400 1399 1397 1395 1394 1392 1389 1387 1385 1383 1381 1378 1376 1374 1372 1370 1367
1395 1397 1399 1401 1402 1404 1405 1405 1406 1406 1407 1406 1406 1406 1406 1406 1405 1405 1404 1404 1402 1401 1400 1398 1397 1396 1394 1393 1391 1389 1388 1386 1384 1382 1379 1377 1375 1373 1370 1368 1365 1363 1361
1390 1392 1394 1395 1397 1398 1399 1400 1401 1401 1401 1401 1401 1401 1400 1400 1400 1399 1398 1398 1397 1396 1394 1393 1391 1390 1388 1387 1385 1383 1382 1380 1378 1376 1374 1372 1370 1367 1365 1363 1361 1358 1355
1384 1386 1388 1390 1392 1393 1394 1395 1396 1396 1397 1397 1396 1396 1395 1395 1395 1395 1394 1392 1391 1390 1389 1387 1386 1384 1383 1381 1380 1378 1376 1375 1373 1371 1369 1367 1365 1363 1360 1358 1356 1354 1351
1378 1380 1382 1384 1386 1387 1388 1389 1390 1392 1392 1392 1391 1391 1390 1390 1390 1389 1388 1387 1386 1385 1384 1382 1381 1379 1378 1376 1375 1373 1371 1370 1368 1366 1364 1362 1360 1358 1356 1354 1352 1350 1347
1373 1375 1377 1379 1381 1382 1383 1384 1384 1385 1386 1386 1386 1386 1385 1385 1384 1383 1383 1382 1381 1380 1379 1377 1376 1375 1373 1371 1370 1368 1366 1365 1363 1361 1359 1357 1355 1353 1351 1349 1348 1346 1344
1368 1371 1373 1374 1376 1377 1378 1379 1379 1380 1380 1381 1381 1381 1380 1380 1379 1378 1378 1377 1375 1375 1374 1372 1371 1370 1368 1366 1365 1363 1361 1360 1358 1356 1354 1353 1351 1349 1347 1345 1343 1342 1340
1364 1366 1368 1370 1371 1373 1374 1374 1375 1376 1376 1376 1376 1376 1376 1375 1375 1374 1373 1372 1371 1369 1368 1367 1366 1364 1363 1361 1360 1358 1356 1354 1353 1351 1349 1348 1346 1344 1343 1341 1339 1338 1336
1359 1361 1363 1365 1367 1368 1369 1370 1370 1371 1371 1371 1371 1371 1371 1370 1370 1369 1368 1367 1366 1365 1363 1362 1360 1359 1357 1356 1354 1352 1350 1349 1347 1346 1344 1343 1341 1340 1338 1337 1335 1334 1332
1355 1357 1359 1361 1362 1363 1364 1365 1366 1366 1367 1367 1367 1367 1367 1366 1365 1364 1363 1362 1361 1360 1358 1357 1355 1353 1352 1350 1348 1347 1345 1343 1342 1341 1339 1338 1337 1336 1334 1333 1332 1330 1329
1350 1352 1354 1356 1357 1359 1360 1361 1362 1362 1363 1363 1362 1362 1362 1361 1360 1359 1358 1357 1356 1355 1353 1351 1349 1348 1346 1344 1343 1341 1339 1338 1337 1336 1334 1333 1332 1331 1330 1329 1328 1327 1326
1347 1348 1350 1352 1353 1355 1356 1357 1357 1358 1358 1358 1358 1357 1357 1356 1355 1354 1353 1352 1350 1349 1347 1345 1343 1342 1340 1339 1337 1336 1334 1332 1331 1330 1329 1329 1328 1327 1326 1325 1325 1324 1323
1343 1345 1346 1348 1349 1351 1352 1353 1353 1354 1354 1354 1353 1353 1352 1351 1350 1349 1348 1346 1345 1343 1341 1339 1338 1336 1334 1333 1331 1330 1328 1327 1326 1325 1324 1324 1323 1323 1322 1322 1321 1320 1319
1340 1342 1343 1345 1346 1347 1348 1349 1349 1349 1349 1349 1349 1348 1347 1346 1345 1343 1342 1340 1339 1337 1335 1334 1332 1330 1328 1327 1325 1324 1323 1321 1320 1320 1319 1319 1318 1318 1318 1318 1317 1317 1316
1337 1339 1341 1342 1343 1343 1344 1344 1345 1345 1345 1344 1343 1343 1342 1341 1339 1338 1336 1335 1333 1331 1329 1327 1326 1324 1322 1321 1319 1318 1317 1316 1315 1315 1315 1314 1314 1314 1314 1314 1314 1313 1313